| time (UTC) | temp F | wind direction | speed MPH | gust MPH | rain 1hr in | rain 24hr in | rain mn in | humidity % | barometer mb |
| 20260508203033 | 64 | 254 | 0.0 | 0.0 | 0.00 | 0.00 | 0.00 | 1023.4 | |
| 20260508202930 | 64 | 254 | 0.0 | 0.0 | 0.00 | 0.00 | 0.00 | 1023.4 | |
| 20260508202530 | 64 | 196 | 0.0 | 0.0 | 0.00 | 0.00 | 0.00 | 1023.4 | |
| 20260508202431 | 64 | 194 | 0.0 | 0.0 | 0.00 | 0.00 | 0.00 | 1023.3 | |
| 20260508202029 | 64 | 260 | 0.0 | 0.0 | 0.00 | 0.00 | 0.00 | 1023.3 | |
| 20260508201930 | 64 | 260 | 0.0 | 0.0 | 0.00 | 0.00 | 0.00 | 1023.3 | |
| 20260508201529 | 63 | 188 | 0.0 | 0.0 | 0.00 | 0.00 | 0.00 | 1023.3 | |
| 20260508201431 | 63 | 276 | 0.0 | 0.0 | 0.00 | 0.00 | 0.00 | 1023.2 | |
| 20260508201029 | 64 | 277 | 0.0 | 0.0 | 0.00 | 0.00 | 0.00 | 1023.2 | |
| 20260508200930 | 64 | 280 | 0.0 | 0.0 | 0.00 | 0.00 | 0.00 | 1023.2 | |
| 20260508200530 | 64 | 210 | 0.0 | 0.0 | 0.00 | 0.00 | 0.00 | 1023.2 | |
| 20260508200413 | 64 | 200 | 0.0 | 0.0 | 0.00 | 0.00 | 0.00 | 1023.2 | |
| 20260508200022 | 64 | 213 | 0.0 | 0.0 | 0.00 | 0.00 | 0.00 | 1023.2 | |
| 20260508195922 | 64 | 271 | 0.0 | 0.0 | 0.00 | 0.00 | 0.00 | 1023.2 | |
| 20260508195521 | 64 | 224 | 0.0 | 0.0 | 0.00 | 0.00 | 0.00 | 1023.2 | |
| 20260508195423 | 64 | 225 | 0.0 | 0.0 | 0.00 | 0.00 | 0.00 | 1023.2 | |
| 20260508195021 | 64 | 180 | 0.0 | 0.0 | 0.00 | 0.00 | 0.00 | 1023.2 | |
| 20260508194921 | 64 | 176 | 0.0 | 0.0 | 0.00 | 0.00 | 0.00 | 1023.3 | |
| 20260508194521 | 64 | 248 | 0.0 | 0.0 | 0.00 | 0.00 | 0.00 | 1023.3 | |
| 20260508194423 | 63 | 247 | 0.0 | 0.0 | 0.00 | 0.00 | 0.00 | 1023.3 | |
| 20260508194024 | 63 | 261 | 0.0 | 0.0 | 0.00 | 0.00 | 0.00 | 1023.2 | |
| 20260508193925 | 63 | 219 | 0.0 | 0.0 | 0.00 | 0.00 | 0.00 | 1023.2 | |
| 20260508193520 | 63 | 250 | 0.0 | 0.0 | 0.00 | 0.00 | 0.00 | 1023.1 | |
| 20260508193425 | 63 | 186 | 0.0 | 0.0 | 0.00 | 0.00 | 0.00 | 1023.1 | |
| 20260508193021 | 63 | 205 | 0.0 | 0.0 | 0.00 | 0.00 | 0.00 | 1023.1 | |
| 20260508192925 | 63 | 222 | 0.0 | 0.0 | 0.00 | 0.00 | 0.00 | 1023.0 | |
| 20260508192520 | 63 | 257 | 0.0 | 0.0 | 0.00 | 0.00 | 0.00 | 1023.0 | |
| 20260508192419 | 63 | 257 | 0.0 | 0.0 | 0.00 | 0.00 | 0.00 | 1023.0 | |
| 20260508192018 | 63 | 186 | 0.0 | 0.0 | 0.00 | 0.00 | 0.00 | 1023.1 | |
| 20260508191920 | 63 | 186 | 0.0 | 0.0 | 0.00 | 0.00 | 0.00 | 1023.1 | |
| 20260508191520 | 62 | 210 | 0.0 | 0.0 | 0.00 | 0.00 | 0.00 | 1023.0 | |
| 20260508191421 | 62 | 209 | 0.0 | 0.0 | 0.00 | 0.00 | 0.00 | 1023.1 | |
| 20260508191020 | 62 | 207 | 0.0 | 0.0 | 0.00 | 0.00 | 0.00 | 1023.1 | |
| 20260508190919 | 62 | 207 | 0.0 | 0.0 | 0.00 | 0.00 | 0.00 | 1023.2 | |
| 20260508190519 | 62 | 198 | 0.0 | 0.0 | 0.00 | 0.00 | 0.00 | 1023.1 | |
| 20260508190419 | 62 | 221 | 0.0 | 0.0 | 0.00 | 0.00 | 0.00 | 1023.2 | |
| 20260508190027 | 62 | 210 | 0.0 | 0.0 | 0.00 | 0.00 | 0.00 | 1023.2 | |
| 20260508185926 | 62 | 191 | 0.0 | 0.0 | 0.00 | 0.00 | 0.00 | 1023.2 | |
| 20260508185524 | 62 | 177 | 0.0 | 0.0 | 0.00 | 0.00 | 0.00 | 1023.2 | |
| 20260508185425 | 62 | 195 | 0.0 | 0.0 | 0.00 | 0.00 | 0.00 | 1023.2 | |
| 20260508185024 | 62 | 231 | 0.0 | 0.0 | 0.00 | 0.00 | 0.00 | 1023.2 | |
| 20260508184924 | 61 | 219 | 0.0 | 0.0 | 0.00 | 0.00 | 0.00 | 1023.2 | |
| 20260508184522 | 61 | 217 | 0.0 | 0.0 | 0.00 | 0.00 | 0.00 | 1023.2 | |
| 20260508184422 | 61 | 265 | 0.0 | 0.0 | 0.00 | 0.00 | 0.00 | 1023.1 | |
| 20260508184016 | 61 | 238 | 0.0 | 0.0 | 0.00 | 0.00 | 0.00 | 1023.1 | |
| 20260508183920 | 61 | 231 | 0.0 | 0.0 | 0.00 | 0.00 | 0.00 | 1023.1 | |
| 20260508183517 | 61 | 262 | 0.0 | 0.0 | 0.00 | 0.00 | 0.00 | 1023.0 | |
| 20260508183422 | 61 | 262 | 0.0 | 0.0 | 0.00 | 0.00 | 0.00 | 1023.0 | |
| 20260508183018 | 61 | 184 | 0.0 | 0.0 | 0.00 | 0.00 | 0.00 | 1022.9 | |
| 20260508182919 | 61 | 179 | 0.0 | 0.0 | 0.00 | 0.00 | 0.00 | 1022.9 | |
| 20260508182518 | 60 | 195 | 0.0 | 0.0 | 0.00 | 0.00 | 0.00 | 1022.8 | |
| 20260508182417 | 60 | 203 | 0.0 | 0.0 | 0.00 | 0.00 | 0.00 | 1022.9 | |
| 20260508182016 | 60 | 164 | 0.0 | 0.0 | 0.00 | 0.00 | 0.00 | 1022.9 | |
| 20260508181918 | 60 | 192 | 0.0 | 0.0 | 0.00 | 0.00 | 0.00 | 1022.8 | |
| 20260508181520 | 59 | 175 | 0.0 | 0.0 | 0.00 | 0.00 | 0.00 | 1022.8 | |
| 20260508181423 | 59 | 165 | 0.0 | 0.0 | 0.00 | 0.00 | 0.00 | 1022.9 | |
| 20260508181021 | 59 | 172 | 0.0 | 0.0 | 0.00 | 0.00 | 0.00 | 1022.9 | |
| 20260508180922 | 59 | 202 | 0.0 | 0.0 | 0.00 | 0.00 | 0.00 | 1022.9 | |
| 20260508180522 | 59 | 177 | 0.0 | 0.0 | 0.00 | 0.00 | 0.00 | 1023.1 | |
| 20260508180423 | 59 | 176 | 0.0 | 0.0 | 0.00 | 0.00 | 0.00 | 1023.1 | |
| 20260508180032 | 59 | 158 | 0.0 | 0.0 | 0.00 | 0.00 | 0.00 | 1023.1 | |
| 20260508175949 | 59 | 153 | 0.0 | 0.0 | 0.00 | 0.00 | 0.00 | 1023.1 | |
| 20260508175531 | 59 | 161 | 0.0 | 0.0 | 0.00 | 0.00 | 0.00 | 1023.1 | |
| 20260508175414 | 59 | 167 | 0.0 | 0.0 | 0.00 | 0.00 | 0.00 | 1023.1 | |
| 20260508175014 | 59 | 194 | 0.0 | 0.0 | 0.00 | 0.00 | 0.00 | 1023.1 | |
| 20260508174915 | 59 | 203 | 0.0 | 0.0 | 0.00 | 0.00 | 0.00 | 1023.2 | |
| 20260508174517 | 59 | 175 | 0.0 | 0.0 | 0.00 | 0.00 | 0.00 | 1023.0 | |
| 20260508174418 | 59 | 177 | 0.0 | 0.0 | 0.00 | 0.00 | 0.00 | 1023.0 | |
| 20260508174013 | 59 | 174 | 0.0 | 0.0 | 0.00 | 0.00 | 0.00 | 1023.0 | |
| 20260508173921 | 59 | 174 | 0.0 | 0.0 | 0.00 | 0.00 | 0.00 | 1023.0 | |
| 20260508173517 | 58 | 174 | 0.0 | 0.0 | 0.00 | 0.00 | 0.00 | 1023.0 | |
| 20260508173423 | 58 | 174 | 0.0 | 0.0 | 0.00 | 0.00 | 0.00 | 1023.0 | |
| 20260508173022 | 58 | 174 | 0.0 | 0.0 | 0.00 | 0.00 | 0.00 | 1023.1 | |
| 20260508172921 | 58 | 193 | 0.0 | 0.0 | 0.00 | 0.00 | 0.00 | 1023.0 | |
| 20260508172520 | 58 | 194 | 0.0 | 0.0 | 0.00 | 0.00 | 0.00 | 1023.0 | |
| 20260508172422 | 58 | 194 | 0.0 | 0.0 | 0.00 | 0.00 | 0.00 | 1022.9 | |
| 20260508172023 | 58 | 157 | 0.0 | 0.0 | 0.00 | 0.00 | 0.00 | 1022.9 | |
| 20260508171925 | 58 | 157 | 0.0 | 0.0 | 0.00 | 0.00 | 0.00 | 1022.9 | |
| 20260508171524 | 59 | 182 | 0.0 | 0.0 | 0.00 | 0.00 | 0.00 | 1022.9 | |
| 20260508171425 | 59 | 182 | 0.0 | 0.0 | 0.00 | 0.00 | 0.00 | 1022.9 | |
| 20260508171024 | 59 | 182 | 0.0 | 0.0 | 0.00 | 0.00 | 0.00 | 1022.8 | |
| 20260508170926 | 59 | 182 | 0.0 | 0.0 | 0.00 | 0.00 | 0.00 | 1022.9 | |
| 20260508170526 | 59 | 181 | 0.0 | 0.0 | 0.00 | 0.00 | 0.00 | 1022.8 | |
| 20260508170022 | 58 | 181 | 0.0 | 0.0 | 0.00 | 0.00 | 0.00 | 1022.8 | |
| 20260508165920 | 58 | 181 | 0.0 | 0.0 | 0.00 | 0.00 | 0.00 | 1022.7 | |
| 20260508165517 | 58 | 179 | 0.0 | 0.0 | 0.00 | 0.00 | 0.00 | 1022.7 | |
| 20260508165419 | 58 | 179 | 0.0 | 0.0 | 0.00 | 0.00 | 0.00 | 1022.7 | |
| 20260508165022 | 58 | 179 | 0.0 | 0.0 | 0.00 | 0.00 | 0.00 | 1022.7 | |
| 20260508164925 | 58 | 179 | 0.0 | 0.0 | 0.00 | 0.00 | 0.00 | 1022.6 | |
| 20260508164524 | 58 | 179 | 0.0 | 0.0 | 0.00 | 0.00 | 0.00 | 1022.6 | |
| 20260508164426 | 58 | 178 | 0.0 | 0.0 | 0.00 | 0.00 | 0.00 | 1022.5 | |
| 20260508164026 | 58 | 189 | 0.0 | 0.0 | 0.00 | 0.00 | 0.00 | 1022.4 | |
| 20260508163927 | 58 | 180 | 0.0 | 0.0 | 0.00 | 0.00 | 0.00 | 1022.5 | |
| 20260508163522 | 58 | 180 | 0.0 | 0.0 | 0.00 | 0.00 | 0.00 | 1022.5 | |
| 20260508163431 | 58 | 170 | 0.0 | 0.0 | 0.00 | 0.00 | 0.00 | 1022.5 | |
| 20260508163029 | 58 | 172 | 0.0 | 0.0 | 0.00 | 0.00 | 0.00 | 1022.4 | |
| 20260508162913 | 58 | 172 | 0.0 | 0.0 | 0.00 | 0.00 | 0.00 | 1022.4 | |
| 20260508162528 | 58 | 168 | 0.0 | 0.0 | 0.00 | 0.00 | 0.00 | 1022.4 | |
| 20260508162431 | 58 | 177 | 0.0 | 0.0 | 0.00 | 0.00 | 0.00 | 1022.3 | |
| 20260508162031 | 58 | 174 | 0.0 | 0.0 | 0.00 | 0.00 | 0.00 | 1022.3 | |
| 20260508161916 | 58 | 174 | 0.0 | 0.0 | 0.00 | 0.00 | 0.00 | 1022.2 | |
| 20260508161514 | 58 | 167 | 0.0 | 0.0 | 0.00 | 0.00 | 0.00 | 1022.2 | |
| 20260508161415 | 58 | 167 | 0.0 | 0.0 | 0.00 | 0.00 | 0.00 | 1022.2 | |
| 20260508161015 | 58 | 159 | 0.0 | 0.0 | 0.00 | 0.00 | 0.00 | 1022.2 | |
| 20260508160916 | 58 | 159 | 0.0 | 0.0 | 0.00 | 0.00 | 0.00 | 1022.2 | |
| 20260508160514 | 58 | 157 | 0.0 | 0.0 | 0.00 | 0.00 | 0.00 | 1022.2 | |
| 20260508160415 | 58 | 155 | 0.0 | 0.0 | 0.00 | 0.00 | 0.00 | 1022.1 | |
| 20260508160024 | 57 | 133 | 0.0 | 0.0 | 0.00 | 0.00 | 0.00 | 1022.1 | |
| 20260508155923 | 57 | 130 | 0.0 | 0.0 | 0.00 | 0.00 | 0.00 | 1022.1 | |
| 20260508155521 | 57 | 164 | 0.0 | 0.0 | 0.00 | 0.00 | 0.00 | 1022.1 | |
| 20260508155423 | 57 | 164 | 0.0 | 0.0 | 0.00 | 0.00 | 0.00 | 1022.0 | |
| 20260508155023 | 57 | 184 | 0.0 | 0.0 | 0.00 | 0.00 | 0.00 | 1022.0 | |
| 20260508154926 | 57 | 184 | 0.0 | 0.0 | 0.00 | 0.00 | 0.00 | 1022.0 | |
| 20260508154525 | 57 | 172 | 0.0 | 0.0 | 0.00 | 0.00 | 0.00 | 1022.1 | |
| 20260508154425 | 57 | 158 | 0.0 | 0.0 | 0.00 | 0.00 | 0.00 | 1022.0 | |
| 20260508154022 | 57 | 190 | 0.0 | 0.0 | 0.00 | 0.00 | 0.00 | 1022.0 | |
| 20260508153924 | 57 | 190 | 0.0 | 0.0 | 0.00 | 0.00 | 0.00 | 1022.0 | |
| 20260508153519 | 57 | 191 | 0.0 | 0.0 | 0.00 | 0.00 | 0.00 | 1022.0 | |
| 20260508153425 | 57 | 191 | 0.0 | 0.0 | 0.00 | 0.00 | 0.00 | 1021.9 | |
| 20260508153022 | 57 | 186 | 0.0 | 0.0 | 0.00 | 0.00 | 0.00 | 1022.1 | |
| 20260508152925 | 57 | 179 | 0.0 | 0.0 | 0.00 | 0.00 | 0.00 | 1022.0 | |
| 20260508152519 | 57 | 158 | 0.0 | 0.0 | 0.00 | 0.00 | 0.00 | 1022.0 | |
| 20260508152417 | 57 | 158 | 0.0 | 0.0 | 0.00 | 0.00 | 0.00 | 1021.8 | |
| 20260508152015 | 57 | 158 | 0.0 | 0.0 | 0.00 | 0.00 | 0.00 | 1021.9 | |
| 20260508151918 | 57 | 158 | 0.0 | 0.0 | 0.00 | 0.00 | 0.00 | 1021.9 | |
| 20260508151519 | 57 | 158 | 0.0 | 0.0 | 0.00 | 0.00 | 0.00 | 1021.9 | |
| 20260508151420 | 57 | 158 | 0.0 | 0.0 | 0.00 | 0.00 | 0.00 | 1021.8 | |
| 20260508151020 | 57 | 158 | 0.0 | 0.0 | 0.00 | 0.00 | 0.00 | 1021.7 | |
| 20260508150924 | 57 | 158 | 0.0 | 0.0 | 0.00 | 0.00 | 0.00 | 1021.7 | |
| 20260508150524 | 56 | 158 | 0.0 | 0.0 | 0.00 | 0.00 | 0.00 | 1021.6 | |
| 20260508150424 | 56 | 158 | 0.0 | 0.0 | 0.00 | 0.00 | 0.00 | 1021.6 | |
| 20260508150034 | 56 | 158 | 0.0 | 0.0 | 0.00 | 0.00 | 0.00 | 1021.4 | |
| 20260508145933 | 56 | 158 | 0.0 | 0.0 | 0.00 | 0.00 | 0.00 | 1021.4 | |
| 20260508145533 | 56 | 158 | 0.0 | 0.0 | 0.00 | 0.00 | 0.00 | 1021.4 | |
| 20260508145433 | 56 | 158 | 0.0 | 0.0 | 0.00 | 0.00 | 0.00 | 1021.4 | |
| 20260508145032 | 56 | 158 | 0.0 | 0.0 | 0.00 | 0.00 | 0.00 | 1021.3 | |
| 20260508144915 | 56 | 158 | 0.0 | 0.0 | 0.00 | 0.00 | 0.00 | 1021.2 | |
| 20260508144418 | 56 | 172 | 0.0 | 0.0 | 0.00 | 0.00 | 0.00 | 1021.4 | |
| 20260508144014 | 56 | 171 | 0.0 | 0.0 | 0.00 | 0.00 | 0.00 | 1021.2 | |
| 20260508143921 | 56 | 171 | 0.0 | 0.0 | 0.00 | 0.00 | 0.00 | 1021.2 | |
| 20260508143518 | 56 | 172 | 0.0 | 0.0 | 0.00 | 0.00 | 0.00 | 1020.9 | |
| 20260508143423 | 56 | 172 | 0.0 | 0.0 | 0.00 | 0.00 | 0.00 | 1020.9 | |
| 20260508143015 | 56 | 160 | 0.0 | 0.0 | 0.00 | 0.00 | 0.00 | 1021.3 | |
| 20260508142935 | 56 | 160 | 0.0 | 0.0 | 0.00 | 0.00 | 0.00 | 1021.3 | |
| 20260508142533 | 56 | 160 | 0.0 | 0.0 | 0.00 | 0.00 | 0.00 | 1021.2 | |
| 20260508142414 | 56 | 160 | 0.0 | 0.0 | 0.00 | 0.00 | 0.00 | 1021.2 | |
| 20260508142016 | 56 | 159 | 0.0 | 0.0 | 0.00 | 0.00 | 0.00 | 1020.9 | |
| 20260508141918 | 56 | 159 | 0.0 | 0.0 | 0.00 | 0.00 | 0.00 | 1020.9 | |
| 20260508141518 | 56 | 159 | 0.0 | 0.0 | 0.00 | 0.00 | 0.00 | 1020.7 | |
| 20260508141418 | 56 | 159 | 0.0 | 0.0 | 0.00 | 0.00 | 0.00 | 1020.7 | |
| 20260508141018 | 56 | 159 | 327.0 | 0.0 | 0.00 | 0.00 | 0.00 | 1020.6 | |
| 20260508140935 | 56 | 159 | 327.0 | 0.0 | 0.00 | 0.00 | 0.00 | 1020.6 | |
| 20260508140645 | 0 | 0.0 | 0.0 | 0.00 | 0.00 | 0.00 | 1020.7 | ||
| 20260508140053 | 0 | 0.0 | 0.0 | 0.00 | 0.00 | 0.00 | 1020.9 | ||
| 20260508135929 | 0 | 0.0 | 0.0 | 0.00 | 0.00 | 0.00 | 1020.9 | ||
| 20260508135527 | 0 | 0.0 | 0.0 | 0.00 | 0.00 | 0.00 | 1021.0 | ||
| 20260508135426 | 0 | 0.0 | 0.0 | 0.00 | 0.00 | 0.00 | 1021.0 | ||
| 20260508135024 | 0 | 0.0 | 0.0 | 0.00 | 0.00 | 0.00 | 1020.6 | ||
| 20260508134924 | 0 | 0.0 | 0.0 | 0.00 | 0.00 | 0.00 | 1020.6 | ||
| 20260508134551 | 0 | 0.0 | 0.0 | 0.00 | 0.00 | 0.00 | 1020.6 | ||
| 20260508134507 | 0 | 0.0 | 0.0 | 0.00 | 0.00 | 0.00 | 1020.7 | ||
| 20260508134132 | 0 | 0.0 | 0.0 | 0.00 | 0.00 | 0.00 | 1020.8 | ||
| 20260508133516 | 0 | 0.0 | 0.0 | 0.00 | 0.00 | 0.00 | 1020.8 | ||
| 20260508133416 | 0 | 0.0 | 0.0 | 0.00 | 0.00 | 0.00 | 1020.7 | ||
| 20260508133016 | 0 | 0.0 | 0.0 | 0.00 | 0.00 | 0.00 | 1020.8 | ||
| 20260508132918 | 0 | 0.0 | 0.0 | 0.00 | 0.00 | 0.00 | 1020.8 | ||
| 20260508132517 | 0 | 0.0 | 0.0 | 0.00 | 0.00 | 0.00 | 1020.9 | ||
| 20260508132418 | 0 | 0.0 | 0.0 | 0.00 | 0.00 | 0.00 | 1020.9 | ||
| 20260508132049 | 0 | 0.0 | 0.0 | 0.00 | 0.00 | 0.00 | 1020.8 | ||
| 20260508132004 | 0 | 0.0 | 0.0 | 0.00 | 0.00 | 0.00 | 1020.7 | ||
| 20260508131602 | 0 | 0.0 | 0.0 | 0.00 | 0.00 | 0.00 | 1020.7 | ||
| 20260508131447 | 0 | 0.0 | 0.0 | 0.00 | 0.00 | 0.00 | 1020.8 | ||
| 20260508131053 | 0 | 0.0 | 0.0 | 0.00 | 0.00 | 0.00 | 1020.9 | ||
| 20260508130932 | 0 | 0.0 | 0.0 | 0.00 | 0.00 | 0.00 | 1020.8 | ||
| 20260508130531 | 0 | 0.0 | 0.0 | 0.00 | 0.00 | 0.00 | 1020.9 | ||
| 20260508130429 | 0 | 0.0 | 0.0 | 0.00 | 0.00 | 0.00 | 1020.8 | ||
| 20260508130016 | 0 | 0.0 | 0.0 | 0.00 | 0.00 | 0.00 | 1020.8 | ||
| 20260508125918 | 0 | 0.0 | 0.0 | 0.00 | 0.00 | 0.00 | 1020.8 | ||
| 20260508125607 | 0 | 0.0 | 0.0 | 0.00 | 0.00 | 0.00 | 1020.9 | ||
| 20260508125106 | 0 | 0.0 | 0.0 | 0.00 | 0.00 | 0.00 | 1020.9 | ||
| 20260508124918 | 0 | 0.0 | 0.0 | 0.00 | 0.00 | 0.00 | 1021.0 | ||
| 20260508124419 | 0 | 0.0 | 0.0 | 0.00 | 0.00 | 0.00 | 1021.0 | ||
| 20260508124020 | 0 | 0.0 | 0.0 | 0.00 | 0.00 | 0.00 | 1021.0 | ||
| 20260508123918 | 0 | 0.0 | 0.0 | 0.00 | 0.00 | 0.00 | 1021.0 | ||
| 20260508123517 | 0 | 0.0 | 0.0 | 0.00 | 0.00 | 0.00 | 1021.0 | ||
| 20260508123417 | 0 | 0.0 | 0.0 | 0.00 | 0.00 | 0.00 | 1021.0 | ||
| 20260508123049 | 0 | 0.0 | 0.0 | 0.00 | 0.00 | 0.00 | 1021.0 | ||
| 20260508123005 | 0 | 0.0 | 0.0 | 0.00 | 0.00 | 0.00 | 1021.0 | ||
| 20260508122600 | 0 | 0.0 | 0.0 | 0.00 | 0.00 | 0.00 | 1021.0 | ||
| 20260508122419 | 0 | 0.0 | 0.0 | 0.00 | 0.00 | 0.00 | 1021.0 | ||
| 20260508122014 | 0 | 0.0 | 0.0 | 0.00 | 0.00 | 0.00 | 1020.9 | ||
| 20260508121935 | 0 | 0.0 | 0.0 | 0.00 | 0.00 | 0.00 | 1020.9 | ||
| 20260508121532 | 0 | 0.0 | 0.0 | 0.00 | 0.00 | 0.00 | 1020.8 | ||
| 20260508121415 | 0 | 0.0 | 0.0 | 0.00 | 0.00 | 0.00 | 1020.8 | ||
| 20260508121017 | 0 | 0.0 | 0.0 | 0.00 | 0.00 | 0.00 | 1020.8 | ||
| 20260508120920 | 0 | 0.0 | 0.0 | 0.00 | 0.00 | 0.00 | 1020.8 | ||
| 20260508120551 | 0 | 0.0 | 0.0 | 0.00 | 0.00 | 0.00 | 1020.8 | ||
| 20260508120510 | 0 | 0.0 | 0.0 | 0.00 | 0.00 | 0.00 | 1020.9 | ||
| 20260508115949 | 0 | 0.0 | 0.0 | 0.00 | 0.00 | 0.00 | 1020.8 | ||
| 20260508115536 | 0 | 0.0 | 0.0 | 0.00 | 0.00 | 0.00 | 1020.7 | ||
| 20260508115432 | 0 | 0.0 | 0.0 | 0.00 | 0.00 | 0.00 | 1020.7 | ||
| 20260508115031 | 0 | 0.0 | 0.0 | 0.00 | 0.00 | 0.00 | 1020.6 | ||
| 20260508114930 | 0 | 0.0 | 0.0 | 0.00 | 0.00 | 0.00 | 1020.7 | ||
| 20260508114527 | 0 | 0.0 | 0.0 | 0.00 | 0.00 | 0.00 | 1020.5 | ||
| 20260508114428 | 0 | 0.0 | 0.0 | 0.00 | 0.00 | 0.00 | 1020.5 | ||
| 20260508114028 | 0 | 0.0 | 0.0 | 0.00 | 0.00 | 0.00 | 1020.6 | ||
| 20260508113949 | 0 | 0.0 | 0.0 | 0.00 | 0.00 | 0.00 | 1020.6 | ||
| 20260508113419 | 0 | 0.0 | 0.0 | 0.00 | 0.00 | 0.00 | 1020.5 | ||
| 20260508113014 | 0 | 0.0 | 0.0 | 0.00 | 0.00 | 0.00 | 1020.4 | ||
| 20260508112918 | 0 | 0.0 | 0.0 | 0.00 | 0.00 | 0.00 | 1020.4 | ||
| 20260508112519 | 0 | 0.0 | 0.0 | 0.00 | 0.00 | 0.00 | 1020.4 | ||
| 20260508112420 | 0 | 0.0 | 0.0 | 0.00 | 0.00 | 0.00 | 1020.4 | ||
| 20260508112018 | 0 | 0.0 | 0.0 | 0.00 | 0.00 | 0.00 | 1020.3 | ||
| 20260508111918 | 0 | 0.0 | 0.0 | 0.00 | 0.00 | 0.00 | 1020.3 | ||
| 20260508111545 | 0 | 0.0 | 0.0 | 0.00 | 0.00 | 0.00 | 1020.3 | ||
| 20260508111502 | 0 | 0.0 | 0.0 | 0.00 | 0.00 | 0.00 | 1020.4 | ||
| 20260508111126 | 0 | 0.0 | 0.0 | 0.00 | 0.00 | 0.00 | 1020.3 | ||
| 20260508111008 | 0 | 0.0 | 0.0 | 0.00 | 0.00 | 0.00 | 1020.2 | ||
| 20260508110429 | 0 | 0.0 | 0.0 | 0.00 | 0.00 | 0.00 | 1020.1 | ||
| 20260508110020 | 0 | 0.0 | 0.0 | 0.00 | 0.00 | 0.00 | 1020.0 | ||
| 20260508105921 | 0 | 0.0 | 0.0 | 0.00 | 0.00 | 0.00 | 1020.1 | ||
| 20260508105521 | 0 | 0.0 | 0.0 | 0.00 | 0.00 | 0.00 | 1020.1 | ||
| 20260508105421 | 0 | 0.0 | 0.0 | 0.00 | 0.00 | 0.00 | 1020.2 | ||
| 20260508105050 | 0 | 0.0 | 0.0 | 0.00 | 0.00 | 0.00 | 1020.3 | ||
| 20260508105007 | 0 | 0.0 | 0.0 | 0.00 | 0.00 | 0.00 | 1020.3 | ||
| 20260508104603 | 0 | 0.0 | 0.0 | 0.00 | 0.00 | 0.00 | 1020.3 | ||
| 20260508104451 | 0 | 0.0 | 0.0 | 0.00 | 0.00 | 0.00 | 1020.2 | ||
| 20260508104045 | 0 | 0.0 | 0.0 | 0.00 | 0.00 | 0.00 | 1020.2 | ||
| 20260508103925 | 0 | 0.0 | 0.0 | 0.00 | 0.00 | 0.00 | 1020.2 | ||
| 20260508103523 | 0 | 0.0 | 0.0 | 0.00 | 0.00 | 0.00 | 1020.2 | ||
| 20260508103424 | 0 | 0.0 | 0.0 | 0.00 | 0.00 | 0.00 | 1020.2 | ||
| 20260508103024 | 0 | 0.0 | 0.0 | 0.00 | 0.00 | 0.00 | 1020.3 | ||
| 20260508102923 | 0 | 0.0 | 0.0 | 0.00 | 0.00 | 0.00 | 1020.2 | ||
| 20260508102524 | 0 | 0.0 | 0.0 | 0.00 | 0.00 | 0.00 | 1020.3 | ||
| 20260508102446 | 53 | 134 | 0.0 | 0.0 | 0.00 | 0.00 | 0.00 | 1020.2 | |
| 20260508102109 | 53 | 134 | 0.0 | 0.0 | 0.00 | 0.00 | 0.00 | 1020.2 | |
| 20260508101955 | 53 | 134 | 0.0 | 0.0 | 0.00 | 0.00 | 0.00 | 1020.1 | |
| 20260508101527 | 53 | 134 | 0.0 | 0.0 | 0.00 | 0.00 | 0.00 | 1020.1 | |
| 20260508101427 | 53 | 134 | 0.0 | 0.0 | 0.00 | 0.00 | 0.00 | 1020.0 | |
| 20260508101026 | 53 | 134 | 0.0 | 0.0 | 0.00 | 0.00 | 0.00 | 1020.0 | |
| 20260508100927 | 53 | 134 | 0.0 | 0.0 | 0.00 | 0.00 | 0.00 | 1020.0 | |
| 20260508100528 | 53 | 93 | 0.0 | 0.0 | 0.00 | 0.00 | 0.00 | 1019.9 | |
| 20260508100428 | 53 | 93 | 0.0 | 0.0 | 0.00 | 0.00 | 0.00 | 1019.9 | |
| 20260508100017 | 53 | 93 | 0.0 | 0.0 | 0.00 | 0.00 | 0.00 | 1019.8 | |
| 20260508095936 | 53 | 93 | 0.0 | 0.0 | 0.00 | 0.00 | 0.00 | 1019.8 | |
| 20260508095532 | 53 | 93 | 0.0 | 0.0 | 0.00 | 0.00 | 0.00 | 1019.8 | |
| 20260508095415 | 53 | 93 | 0.0 | 0.0 | 0.00 | 0.00 | 0.00 | 1019.9 | |
| 20260508095028 | 53 | 93 | 0.0 | 0.0 | 0.00 | 0.00 | 0.00 | 1019.9 | |
| 20260508094929 | 53 | 93 | 0.0 | 0.0 | 0.00 | 0.00 | 0.00 | 1019.9 | |
| 20260508094530 | 53 | 7 | 0.0 | 0.0 | 0.00 | 0.00 | 0.00 | 1019.8 | |
| 20260508094432 | 53 | 7 | 0.0 | 0.0 | 0.00 | 0.00 | 0.00 | 1019.9 | |
| 20260508094030 | 53 | 7 | 0.0 | 0.0 | 0.00 | 0.00 | 0.00 | 1019.8 | |
| 20260508093931 | 53 | 7 | 0.0 | 0.0 | 0.00 | 0.00 | 0.00 | 1019.9 | |
| 20260508093530 | 53 | 7 | 0.0 | 0.0 | 0.00 | 0.00 | 0.00 | 1019.9 | |
| 20260508093431 | 53 | 7 | 0.0 | 0.0 | 0.00 | 0.00 | 0.00 | 1019.8 | |
| 20260508093031 | 53 | 7 | 0.0 | 0.0 | 0.00 | 0.00 | 0.00 | 1019.8 | |
| 20260508092931 | 53 | 7 | 0.0 | 0.0 | 0.00 | 0.00 | 0.00 | 1019.8 | |
| 20260508092530 | 53 | 7 | 0.0 | 0.0 | 0.00 | 0.00 | 0.00 | 1019.9 | |
| 20260508092433 | 53 | 7 | 0.0 | 0.0 | 0.00 | 0.00 | 0.00 | 1019.9 | |
| 20260508092030 | 53 | 7 | 0.0 | 0.0 | 0.00 | 0.00 | 0.00 | 1019.9 | |
| 20260508091930 | 53 | 7 | 0.0 | 0.0 | 0.00 | 0.00 | 0.00 | 1019.9 | |
| 20260508091529 | 53 | 7 | 0.0 | 0.0 | 0.00 | 0.00 | 0.00 | 1019.8 | |
| 20260508091433 | 53 | 7 | 0.0 | 0.0 | 0.00 | 0.00 | 0.00 | 1019.8 | |
| 20260508091032 | 53 | 7 | 0.0 | 0.0 | 0.00 | 0.00 | 0.00 | 1019.8 | |
| 20260508090932 | 53 | 7 | 0.0 | 0.0 | 0.00 | 0.00 | 0.00 | 1019.8 | |
| 20260508090531 | 52 | 7 | 0.0 | 0.0 | 0.00 | 0.00 | 0.00 | 1019.8 | |
| 20260508090413 | 52 | 7 | 0.0 | 0.0 | 0.00 | 0.00 | 0.00 | 1019.8 | |
| 20260508090025 | 52 | 7 | 0.0 | 0.0 | 0.00 | 0.00 | 0.00 | 1019.8 | |
| 20260508085923 | 52 | 7 | 0.0 | 0.0 | 0.00 | 0.00 | 0.00 | 1019.7 | |
| 20260508085515 | 52 | 7 | 0.0 | 0.0 | 0.00 | 0.00 | 0.00 | 1019.7 | |
| 20260508085421 | 52 | 7 | 0.0 | 0.0 | 0.00 | 0.00 | 0.00 | 1019.7 | |
| 20260508085018 | 52 | 7 | 0.0 | 0.0 | 0.00 | 0.00 | 0.00 | 1019.8 | |
| 20260508084923 | 52 | 7 | 0.0 | 0.0 | 0.00 | 0.00 | 0.00 | 1019.8 | |
| 20260508084520 | 52 | 7 | 0.0 | 0.0 | 0.00 | 0.00 | 0.00 | 1019.8 | |
| 20260508084422 | 52 | 7 | 0.0 | 0.0 | 0.00 | 0.00 | 0.00 | 1019.7 | |
| 20260508084021 | 52 | 7 | 0.0 | 0.0 | 0.00 | 0.00 | 0.00 | 1019.6 | |
| 20260508083924 | 52 | 7 | 0.0 | 0.0 | 0.00 | 0.00 | 0.00 | 1019.6 | |
| 20260508083525 | 52 | 7 | 0.0 | 0.0 | 0.00 | 0.00 | 0.00 | 1019.6 | |
| 20260508083429 | 52 | 7 | 0.0 | 0.0 | 0.00 | 0.00 | 0.00 | 1019.6 | |
| 20260508083028 | 52 | 7 | 0.0 | 0.0 | 0.00 | 0.00 | 0.00 | 1019.6 | |
| 20260508082928 | 52 | 7 | 0.0 | 0.0 | 0.00 | 0.00 | 0.00 | 1019.7 | |
| 20260508082526 | 52 | 7 | 0.0 | 0.0 | 0.00 | 0.00 | 0.00 | 1019.5 | |
| 20260508082425 | 51 | 7 | 0.0 | 0.0 | 0.00 | 0.00 | 0.00 | 1019.5 | |
| 20260508082023 | 51 | 7 | 0.0 | 0.0 | 0.00 | 0.00 | 0.00 | 1019.5 | |
| 20260508081924 | 51 | 7 | 0.0 | 0.0 | 0.00 | 0.00 | 0.00 | 1019.5 | |
| 20260508081523 | 51 | 7 | 0.0 | 0.0 | 0.00 | 0.00 | 0.00 | 1019.5 | |
| 20260508081426 | 51 | 7 | 0.0 | 0.0 | 0.00 | 0.00 | 0.00 | 1019.5 | |
| 20260508081027 | 51 | 7 | 0.0 | 0.0 | 0.00 | 0.00 | 0.00 | 1019.4 | |
| 20260508080929 | 51 | 7 | 0.0 | 0.0 | 0.00 | 0.00 | 0.00 | 1019.4 | |
| 20260508080530 | 51 | 7 | 0.0 | 0.0 | 0.00 | 0.00 | 0.00 | 1019.4 | |
| 20260508080431 | 51 | 7 | 0.0 | 0.0 | 0.00 | 0.00 | 0.00 | 1019.3 | |
| 20260508080016 | 51 | 7 | 0.0 | 0.0 | 0.00 | 0.00 | 0.00 | 1019.0 | |
| 20260508075918 | 51 | 7 | 0.0 | 0.0 | 0.00 | 0.00 | 0.00 | 1019.0 | |
| 20260508075518 | 51 | 7 | 0.0 | 0.0 | 0.00 | 0.00 | 0.00 | 1019.2 | |
| 20260508075420 | 51 | 7 | 0.0 | 0.0 | 0.00 | 0.00 | 0.00 | 1019.2 | |
| 20260508075018 | 51 | 7 | 0.0 | 0.0 | 0.00 | 0.00 | 0.00 | 1019.2 | |
| 20260508074923 | 51 | 7 | 0.0 | 0.0 | 0.00 | 0.00 | 0.00 | 1019.2 | |
| 20260508074517 | 51 | 7 | 0.0 | 0.0 | 0.00 | 0.00 | 0.00 | 1019.2 | |
| 20260508074421 | 51 | 7 | 0.0 | 0.0 | 0.00 | 0.00 | 0.00 | 1019.2 | |
| 20260508074018 | 51 | 7 | 0.0 | 0.0 | 0.00 | 0.00 | 0.00 | 1019.2 | |
| 20260508073918 | 51 | 7 | 0.0 | 0.0 | 0.00 | 0.00 | 0.00 | 1019.2 | |
| 20260508073519 | 50 | 7 | 0.0 | 0.0 | 0.00 | 0.00 | 0.00 | 1019.2 | |
| 20260508073421 | 50 | 7 | 0.0 | 0.0 | 0.00 | 0.00 | 0.00 | 1019.2 | |
| 20260508073023 | 50 | 7 | 0.0 | 0.0 | 0.00 | 0.00 | 0.00 | 1019.2 | |
| 20260508072925 | 50 | 7 | 0.0 | 0.0 | 0.00 | 0.00 | 0.00 | 1019.3 | |
| 20260508072526 | 50 | 7 | 0.0 | 0.0 | 0.00 | 0.00 | 0.00 | 1019.2 | |
| 20260508072430 | 50 | 7 | 0.0 | 0.0 | 0.00 | 0.00 | 0.00 | 1019.1 | |
| 20260508072031 | 50 | 7 | 0.0 | 0.0 | 0.00 | 0.00 | 0.00 | 1019.2 | |
| 20260508071913 | 50 | 7 | 0.0 | 0.0 | 0.00 | 0.00 | 0.00 | 1019.2 | |
| 20260508071515 | 50 | 7 | 0.0 | 0.0 | 0.00 | 0.00 | 0.00 | 1019.3 | |
| 20260508071418 | 50 | 7 | 0.0 | 0.0 | 0.00 | 0.00 | 0.00 | 1019.3 | |
| 20260508071019 | 50 | 7 | 0.0 | 0.0 | 0.00 | 0.00 | 0.00 | 1019.2 | |
| 20260508070922 | 50 | 7 | 0.0 | 0.0 | 0.00 | 0.00 | 0.00 | 1019.2 | |
| 20260508070519 | 50 | 7 | 0.0 | 0.0 | 0.00 | 0.00 | 0.00 | 1019.2 | |
| 20260508070421 | 50 | 7 | 0.0 | 0.0 | 0.00 | 0.00 | 0.00 | 1019.2 | |
| 20260508070032 | 50 | 7 | 0.0 | 0.0 | 0.00 | 0.00 | 0.00 | 1019.2 | |
| 20260508065923 | 51 | 7 | 0.0 | 0.0 | 0.00 | 0.00 | 0.00 | 1019.2 | |
| 20260508065523 | 51 | 7 | 0.0 | 0.0 | 0.00 | 0.00 | 0.00 | 1019.2 | |
| 20260508065425 | 51 | 7 | 0.0 | 0.0 | 0.00 | 0.00 | 0.00 | 1019.2 | |
| 20260508065024 | 51 | 7 | 0.0 | 0.0 | 0.00 | 0.00 | 0.00 | 1019.3 | |
| 20260508064930 | 51 | 7 | 0.0 | 0.0 | 0.00 | 0.00 | 0.00 | 1019.3 | |
| 20260508064526 | 51 | 7 | 0.0 | 0.0 | 0.00 | 0.00 | 0.00 | 1019.3 | |
| 20260508064431 | 51 | 7 | 0.0 | 0.0 | 0.00 | 0.00 | 0.00 | 1019.3 | |
| 20260508064024 | 51 | 7 | 0.0 | 0.0 | 0.00 | 0.00 | 0.00 | 1019.2 | |
| 20260508063926 | 51 | 7 | 0.0 | 0.0 | 0.00 | 0.00 | 0.00 | 1019.3 | |
| 20260508063558 | 51 | 7 | 0.0 | 0.0 | 0.00 | 0.00 | 0.00 | 65 | 1019.2 |
| 20260508063503 | 0 | 121 | 0.0 | 0.0 | 0.00 | 0.00 | 0.00 | 65 | 1019.3 |
| 20260508062935 | 0 | 121 | 0.0 | 0.0 | 0.00 | 0.00 | 0.00 | 65 | 1019.2 |
| 20260508062521 | 59 | 120 | 0.0 | 0.0 | 0.00 | 0.00 | 0.00 | 65 | 1019.2 |
| 20260508062422 | 59 | 120 | 0.0 | 0.0 | 0.00 | 0.00 | 0.00 | 65 | 1019.1 |
| 20260508062025 | 59 | 120 | 0.0 | 0.0 | 0.00 | 0.00 | 0.00 | 65 | 1019.1 |
| 20260508061925 | 59 | 120 | 0.0 | 0.0 | 0.00 | 0.00 | 0.00 | 65 | 1019.1 |
| 20260508061521 | 59 | 120 | 0.0 | 0.0 | 0.00 | 0.00 | 0.00 | 65 | 1019.1 |
| 20260508061426 | 59 | 120 | 0.0 | 0.0 | 0.00 | 0.00 | 0.00 | 65 | 1019.1 |
| 20260508061022 | 59 | 120 | 0.0 | 0.0 | 0.00 | 0.00 | 0.00 | 65 | 1019.1 |
| 20260508060928 | 59 | 120 | 0.0 | 0.0 | 0.00 | 0.00 | 0.00 | 65 | 1019.1 |
| 20260508060526 | 60 | 120 | 0.0 | 0.0 | 0.00 | 0.00 | 0.00 | 65 | 1019.0 |
| 20260508060412 | 60 | 120 | 0.0 | 0.0 | 0.00 | 0.00 | 0.00 | 65 | 1019.1 |
| 20260508060022 | 60 | 120 | 0.0 | 0.0 | 0.00 | 0.00 | 0.00 | 65 | 1019.0 |
| 20260508055923 | 60 | 120 | 0.0 | 0.0 | 0.00 | 0.00 | 0.00 | 65 | 1019.0 |
| 20260508055523 | 60 | 120 | 0.0 | 0.0 | 0.00 | 0.00 | 0.00 | 65 | 1019.0 |
| 20260508055426 | 60 | 120 | 0.0 | 0.0 | 0.00 | 0.00 | 0.00 | 65 | 1019.0 |
| 20260508055027 | 60 | 120 | 0.0 | 0.0 | 0.00 | 0.00 | 0.00 | 65 | 1018.9 |
| 20260508054927 | 60 | 120 | 0.0 | 0.0 | 0.00 | 0.00 | 0.00 | 65 | 1018.9 |
| 20260508054526 | 60 | 120 | 0.0 | 0.0 | 0.00 | 0.00 | 0.00 | 65 | 1019.0 |
| 20260508054427 | 60 | 120 | 0.0 | 0.0 | 0.00 | 0.00 | 0.00 | 65 | 1019.0 |
| 20260508054026 | 61 | 120 | 0.0 | 0.0 | 0.00 | 0.00 | 0.00 | 65 | 1019.0 |
| 20260508053929 | 61 | 120 | 0.0 | 0.0 | 0.00 | 0.00 | 0.00 | 65 | 1019.0 |
| 20260508053530 | 61 | 120 | 0.0 | 0.0 | 0.00 | 0.00 | 0.00 | 65 | 1018.9 |
| 20260508053430 | 61 | 120 | 0.0 | 0.0 | 0.00 | 0.00 | 0.00 | 65 | 1019.0 |
| 20260508053032 | 61 | 120 | 0.0 | 0.0 | 0.00 | 0.00 | 0.00 | 65 | 1018.9 |
| 20260508052913 | 61 | 120 | 0.0 | 0.0 | 0.00 | 0.00 | 0.00 | 65 | 1018.9 |
| 20260508052514 | 61 | 120 | 0.0 | 0.0 | 0.00 | 0.00 | 0.00 | 65 | 1018.9 |
| 20260508052416 | 61 | 120 | 0.0 | 0.0 | 0.00 | 0.00 | 0.00 | 65 | 1018.9 |
| 20260508052018 | 61 | 120 | 0.0 | 0.0 | 0.00 | 0.00 | 0.00 | 65 | 1018.9 |
| 20260508051920 | 61 | 120 | 0.0 | 0.0 | 0.00 | 0.00 | 0.00 | 65 | 1018.9 |
| 20260508051520 | 62 | 120 | 0.0 | 0.0 | 0.00 | 0.00 | 0.00 | 65 | 1019.0 |
| 20260508051421 | 62 | 120 | 0.0 | 0.0 | 0.00 | 0.00 | 0.00 | 65 | 1018.9 |
| 20260508051020 | 62 | 120 | 0.0 | 0.0 | 0.00 | 0.00 | 0.00 | 65 | 1018.8 |
| 20260508050920 | 62 | 120 | 0.0 | 0.0 | 0.00 | 0.00 | 0.00 | 65 | 1018.9 |
| 20260508050516 | 62 | 120 | 0.0 | 0.0 | 0.00 | 0.00 | 0.00 | 65 | 1018.9 |
| 20260508050423 | 62 | 120 | 0.0 | 0.0 | 0.00 | 0.00 | 0.00 | 65 | 1018.9 |
| 20260508050031 | 62 | 120 | 0.0 | 0.0 | 0.00 | 0.00 | 0.00 | 65 | 1019.0 |
| 20260508045911 | 62 | 120 | 0.0 | 0.0 | 0.00 | 0.00 | 0.00 | 65 | 1018.9 |
| 20260508045533 | 62 | 120 | 0.0 | 0.0 | 0.00 | 0.00 | 0.00 | 65 | 1019.0 |
| 20260508045416 | 62 | 120 | 0.0 | 0.0 | 0.00 | 0.00 | 0.00 | 65 | 1019.0 |
| 20260508045018 | 63 | 120 | 0.0 | 0.0 | 0.00 | 0.00 | 0.00 | 65 | 1019.1 |
| 20260508044919 | 63 | 120 | 0.0 | 0.0 | 0.00 | 0.00 | 0.00 | 65 | 1019.1 |
| 20260508044520 | 63 | 120 | 0.0 | 0.0 | 0.00 | 0.00 | 0.00 | 65 | 1019.1 |
| 20260508044421 | 63 | 120 | 0.0 | 0.0 | 0.00 | 0.00 | 0.00 | 65 | 1019.1 |
| 20260508044020 | 63 | 120 | 0.0 | 0.0 | 0.00 | 0.00 | 0.00 | 65 | 1019.1 |
| 20260508043920 | 63 | 120 | 0.0 | 0.0 | 0.00 | 0.00 | 0.00 | 65 | 1019.2 |
| 20260508043520 | 63 | 120 | 0.0 | 0.0 | 0.00 | 0.00 | 0.00 | 65 | 1019.1 |
| 20260508043421 | 63 | 120 | 0.0 | 0.0 | 0.00 | 0.00 | 0.00 | 65 | 1019.1 |
| 20260508043024 | 63 | 120 | 0.0 | 0.0 | 0.00 | 0.00 | 0.00 | 65 | 1019.2 |
| 20260508042925 | 64 | 120 | 0.0 | 0.0 | 0.00 | 0.00 | 0.00 | 65 | 1019.2 |
| 20260508042522 | 64 | 120 | 0.0 | 0.0 | 0.00 | 0.00 | 0.00 | 65 | 1019.3 |
| 20260508042422 | 64 | 120 | 0.0 | 0.0 | 0.00 | 0.00 | 0.00 | 65 | 1019.2 |
| 20260508042020 | 64 | 120 | 0.0 | 0.0 | 0.00 | 0.00 | 0.00 | 65 | 1019.2 |
| 20260508041922 | 64 | 120 | 0.0 | 0.0 | 0.00 | 0.00 | 0.00 | 65 | 1019.2 |
| 20260508041525 | 64 | 120 | 0.0 | 0.0 | 0.00 | 0.00 | 0.00 | 65 | 1019.1 |
| 20260508041424 | 64 | 120 | 0.0 | 0.0 | 0.00 | 0.00 | 0.00 | 65 | 1019.2 |
| 20260508041024 | 64 | 120 | 0.0 | 0.0 | 0.00 | 0.00 | 0.00 | 65 | 1018.9 |
| 20260508040926 | 64 | 120 | 0.0 | 0.0 | 0.00 | 0.00 | 0.00 | 65 | 1018.9 |
| 20260508040529 | 64 | 120 | 0.0 | 0.0 | 0.00 | 0.00 | 0.00 | 65 | 1018.9 |
| 20260508040431 | 65 | 120 | 0.0 | 0.0 | 0.00 | 0.00 | 0.00 | 65 | 1019.0 |
| 20260508040014 | 65 | 120 | 0.0 | 0.0 | 0.00 | 0.00 | 0.00 | 65 | 1019.0 |
| 20260508035934 | 65 | 120 | 0.0 | 0.0 | 0.00 | 0.00 | 0.00 | 65 | 1019.0 |
| 20260508035533 | 65 | 120 | 0.0 | 0.0 | 0.00 | 0.00 | 0.00 | 65 | 1019.0 |
| 20260508035434 | 65 | 120 | 0.0 | 0.0 | 0.00 | 0.00 | 0.00 | 65 | 1018.9 |
| 20260508035032 | 65 | 120 | 0.0 | 0.0 | 0.00 | 0.00 | 0.00 | 65 | 1019.0 |
| 20260508034916 | 65 | 120 | 0.0 | 0.0 | 0.00 | 0.00 | 0.00 | 65 | 1019.0 |
| 20260508034519 | 65 | 120 | 0.0 | 0.0 | 0.00 | 0.00 | 0.00 | 65 | 1019.0 |
| 20260508034418 | 65 | 120 | 0.0 | 0.0 | 0.00 | 0.00 | 0.00 | 65 | 1019.0 |
| 20260508034015 | 65 | 120 | 0.0 | 0.0 | 0.00 | 0.00 | 0.00 | 65 | 1018.9 |
| 20260508033916 | 66 | 120 | 0.0 | 0.0 | 0.00 | 0.00 | 0.00 | 65 | 1018.9 |
| 20260508033513 | 66 | 120 | 0.0 | 0.0 | 0.00 | 0.00 | 0.00 | 65 | 1019.0 |
| 20260508033434 | 66 | 120 | 0.0 | 0.0 | 0.00 | 0.00 | 0.00 | 65 | 1019.0 |
| 20260508033034 | 66 | 120 | 0.0 | 0.0 | 0.00 | 0.00 | 0.00 | 65 | 1019.0 |
| 20260508032933 | 66 | 120 | 0.0 | 0.0 | 0.00 | 0.00 | 0.00 | 65 | 1019.0 |
| 20260508032532 | 66 | 120 | 0.0 | 0.0 | 0.00 | 0.00 | 0.00 | 65 | 1018.8 |
| 20260508032434 | 66 | 120 | 0.0 | 0.0 | 0.00 | 0.00 | 0.00 | 65 | 1018.8 |
| 20260508032033 | 66 | 120 | 0.0 | 0.0 | 0.00 | 0.00 | 0.00 | 65 | 1018.7 |
| 20260508031916 | 66 | 120 | 0.0 | 0.0 | 0.00 | 0.00 | 0.00 | 65 | 1018.7 |
| 20260508031516 | 66 | 120 | 0.0 | 0.0 | 0.00 | 0.00 | 0.00 | 65 | 1018.8 |
| 20260508031417 | 67 | 120 | 0.0 | 0.0 | 0.00 | 0.00 | 0.00 | 65 | 1018.8 |
| 20260508031018 | 67 | 120 | 0.0 | 0.0 | 0.00 | 0.00 | 0.00 | 65 | 1018.7 |
| 20260508030921 | 67 | 120 | 0.0 | 0.0 | 0.00 | 0.00 | 0.00 | 65 | 1018.7 |
| 20260508030522 | 67 | 120 | 0.0 | 0.0 | 0.00 | 0.00 | 0.00 | 65 | 1018.7 |
| 20260508030425 | 67 | 120 | 0.0 | 0.0 | 0.00 | 0.00 | 0.00 | 65 | 1018.6 |
| 20260508030034 | 67 | 120 | 0.0 | 0.0 | 0.00 | 0.00 | 0.00 | 66 | 1018.7 |
| 20260508025938 | 67 | 120 | 0.0 | 0.0 | 0.00 | 0.00 | 0.00 | 66 | 1018.7 |
| 20260508025529 | 67 | 120 | 0.0 | 0.0 | 0.00 | 0.00 | 0.00 | 66 | 1018.7 |
| 20260508025412 | 67 | 120 | 0.0 | 0.0 | 0.00 | 0.00 | 0.00 | 66 | 1018.6 |
| 20260508025032 | 68 | 120 | 0.0 | 0.0 | 0.00 | 0.00 | 0.00 | 66 | 1018.7 |
| 20260508024913 | 68 | 120 | 0.0 | 0.0 | 0.00 | 0.00 | 0.00 | 66 | 1018.7 |
| 20260508024516 | 68 | 120 | 0.0 | 0.0 | 0.00 | 0.00 | 0.00 | 66 | 1018.7 |
| 20260508024420 | 68 | 120 | 0.0 | 0.0 | 0.00 | 0.00 | 0.00 | 66 | 1018.7 |
| 20260508024018 | 68 | 120 | 0.0 | 0.0 | 0.00 | 0.00 | 0.00 | 66 | 1018.7 |
| 20260508023918 | 68 | 120 | 0.0 | 0.0 | 0.00 | 0.00 | 0.00 | 66 | 1018.6 |
| 20260508023519 | 68 | 120 | 0.0 | 0.0 | 0.00 | 0.00 | 0.00 | 66 | 1018.7 |
| 20260508023419 | 68 | 120 | 0.0 | 0.0 | 0.00 | 0.00 | 0.00 | 66 | 1018.7 |
| 20260508023021 | 68 | 120 | 0.0 | 0.0 | 0.00 | 0.00 | 0.00 | 66 | 1018.8 |
| 20260508022918 | 68 | 120 | 0.0 | 0.0 | 0.00 | 0.00 | 0.00 | 66 | 1018.8 |
| 20260508022518 | 68 | 120 | 0.0 | 0.0 | 0.00 | 0.00 | 0.00 | 66 | 1018.8 |
| 20260508022418 | 69 | 120 | 0.0 | 0.0 | 0.00 | 0.00 | 0.00 | 66 | 1018.7 |
| 20260508022017 | 69 | 120 | 0.0 | 0.0 | 0.00 | 0.00 | 0.00 | 66 | 1018.8 |
| 20260508021920 | 69 | 120 | 0.0 | 0.0 | 0.00 | 0.00 | 0.00 | 66 | 1018.8 |
| 20260508021523 | 69 | 120 | 0.0 | 0.0 | 0.00 | 0.00 | 0.00 | 66 | 1018.7 |
| 20260508021425 | 69 | 120 | 0.0 | 0.0 | 0.00 | 0.00 | 0.00 | 66 | 1018.7 |
| 20260508021023 | 69 | 120 | 0.0 | 0.0 | 0.00 | 0.00 | 0.00 | 66 | 1018.7 |
| 20260508020925 | 69 | 120 | 0.0 | 0.0 | 0.00 | 0.00 | 0.00 | 66 | 1018.7 |
| 20260508020526 | 69 | 120 | 0.0 | 0.0 | 0.00 | 0.00 | 0.00 | 66 | 1018.7 |
| 20260508020424 | 69 | 120 | 0.0 | 0.0 | 0.00 | 0.00 | 0.00 | 66 | 1018.7 |
| 20260508020015 | 69 | 120 | 0.0 | 0.0 | 0.00 | 0.00 | 0.00 | 66 | 1018.7 |
| 20260508015918 | 69 | 120 | 0.0 | 0.0 | 0.00 | 0.00 | 0.00 | 66 | 1018.6 |
| 20260508015515 | 70 | 120 | 0.0 | 0.0 | 0.00 | 0.00 | 0.00 | 66 | 1018.6 |
| 20260508015421 | 70 | 120 | 0.0 | 0.0 | 0.00 | 0.00 | 0.00 | 66 | 1018.6 |
| 20260508015016 | 70 | 120 | 0.0 | 0.0 | 0.00 | 0.00 | 0.00 | 66 | 1018.7 |
| 20260508014919 | 70 | 120 | 0.0 | 0.0 | 0.00 | 0.00 | 0.00 | 66 | 1018.7 |
| 20260508014530 | 70 | 120 | 0.0 | 0.0 | 0.00 | 0.00 | 0.00 | 66 | 1018.7 |
| 20260508014430 | 70 | 120 | 0.0 | 0.0 | 0.00 | 0.00 | 0.00 | 66 | 1018.7 |
| 20260508014029 | 70 | 120 | 0.0 | 0.0 | 0.00 | 0.00 | 0.00 | 67 | 1018.6 |
| 20260508013931 | 70 | 120 | 0.0 | 0.0 | 0.00 | 0.00 | 0.00 | 67 | 1018.7 |
| 20260508013532 | 70 | 120 | 0.0 | 0.0 | 0.00 | 0.00 | 0.00 | 67 | 1018.7 |
| 20260508013412 | 70 | 120 | 0.0 | 0.0 | 0.00 | 0.00 | 0.00 | 67 | 1018.8 |
| 20260508013015 | 70 | 120 | 0.0 | 0.0 | 0.00 | 0.00 | 0.00 | 67 | 1018.7 |
| 20260508012917 | 70 | 120 | 0.0 | 0.0 | 0.00 | 0.00 | 0.00 | 67 | 1018.8 |
| 20260508012517 | 71 | 120 | 0.0 | 0.0 | 0.00 | 0.00 | 0.00 | 67 | 1018.7 |
| 20260508012418 | 71 | 120 | 0.0 | 0.0 | 0.00 | 0.00 | 0.00 | 67 | 1018.8 |
| 20260508012019 | 71 | 120 | 0.0 | 0.0 | 0.00 | 0.00 | 0.00 | 67 | 1018.9 |
| 20260508011917 | 71 | 120 | 0.0 | 0.0 | 0.00 | 0.00 | 0.00 | 67 | 1018.9 |
| 20260508011514 | 71 | 120 | 0.0 | 0.0 | 0.00 | 0.00 | 0.00 | 67 | 1018.9 |
| 20260508011434 | 71 | 120 | 0.0 | 0.0 | 0.00 | 0.00 | 0.00 | 67 | 1018.9 |
| 20260508011029 | 71 | 120 | 0.0 | 0.0 | 0.00 | 0.00 | 0.00 | 67 | 1018.9 |
| 20260508010930 | 71 | 120 | 0.0 | 0.0 | 0.00 | 0.00 | 0.00 | 67 | 1018.9 |
| 20260508010530 | 71 | 120 | 0.0 | 0.0 | 0.00 | 0.00 | 0.00 | 67 | 1018.9 |
| 20260508010412 | 71 | 120 | 0.0 | 0.0 | 0.00 | 0.00 | 0.00 | 67 | 1018.9 |
| 20260508010017 | 71 | 120 | 0.0 | 0.0 | 0.00 | 0.00 | 0.00 | 67 | 1019.0 |
| 20260508005919 | 71 | 120 | 0.0 | 0.0 | 0.00 | 0.00 | 0.00 | 67 | 1019.0 |
| 20260508005516 | 72 | 120 | 0.0 | 0.0 | 0.00 | 0.00 | 0.00 | 67 | 1018.9 |
| 20260508005420 | 72 | 120 | 0.0 | 0.0 | 0.00 | 0.00 | 0.00 | 67 | 1018.9 |
| 20260508005017 | 72 | 120 | 0.0 | 0.0 | 0.00 | 0.00 | 0.00 | 67 | 1018.9 |
| 20260508004918 | 72 | 120 | 0.0 | 0.0 | 0.00 | 0.00 | 0.00 | 67 | 1018.9 |
| 20260508004514 | 72 | 120 | 0.0 | 0.0 | 0.00 | 0.00 | 0.00 | 67 | 1018.9 |
| 20260508004435 | 72 | 120 | 0.0 | 0.0 | 0.00 | 0.00 | 0.00 | 67 | 1018.9 |
| 20260508004033 | 72 | 120 | 0.0 | 0.0 | 0.00 | 0.00 | 0.00 | 67 | 1019.1 |
| 20260508003915 | 72 | 120 | 0.0 | 0.0 | 0.00 | 0.00 | 0.00 | 67 | 1019.0 |
| 20260508003518 | 72 | 120 | 0.0 | 0.0 | 0.00 | 0.00 | 0.00 | 67 | 1019.0 |
| 20260508003420 | 72 | 120 | 0.0 | 0.0 | 0.00 | 0.00 | 0.00 | 67 | 1019.0 |
| 20260508003021 | 72 | 120 | 0.0 | 0.0 | 0.00 | 0.00 | 0.00 | 67 | 1019.2 |
| 20260508002921 | 72 | 120 | 0.0 | 0.0 | 0.00 | 0.00 | 0.00 | 67 | 1019.2 |
| 20260508002518 | 73 | 120 | 0.0 | 0.0 | 0.00 | 0.00 | 0.00 | 68 | 1019.3 |
| 20260508002419 | 73 | 120 | 0.0 | 0.0 | 0.00 | 0.00 | 0.00 | 68 | 1019.3 |
| 20260508002018 | 73 | 120 | 0.0 | 0.0 | 0.00 | 0.00 | 0.00 | 68 | 1019.2 |
| 20260508001920 | 73 | 120 | 0.0 | 0.0 | 0.00 | 0.00 | 0.00 | 68 | 1019.2 |
| 20260508001519 | 73 | 120 | 0.0 | 0.0 | 0.00 | 0.00 | 0.00 | 68 | 1019.3 |
| 20260508001423 | 73 | 120 | 0.0 | 0.0 | 0.00 | 0.00 | 0.00 | 68 | 1019.3 |
| 20260508001021 | 73 | 120 | 0.0 | 0.0 | 0.00 | 0.00 | 0.00 | 68 | 1019.4 |
| 20260508000921 | 73 | 120 | 0.0 | 0.0 | 0.00 | 0.00 | 0.00 | 68 | 1019.4 |
| 20260508000518 | 73 | 120 | 0.0 | 0.0 | 0.00 | 0.00 | 0.00 | 69 | 1019.4 |
| 20260508000419 | 73 | 120 | 0.0 | 0.0 | 0.00 | 0.00 | 0.00 | 69 | 1019.4 |
| 20260508000022 | 73 | 120 | 0.0 | 0.0 | 0.00 | 0.00 | 0.00 | 69 | 1019.4 |
| 20260507235924 | 73 | 120 | 0.0 | 0.0 | 0.00 | 0.00 | 0.00 | 69 | 1019.3 |
| 20260507235519 | 73 | 120 | 0.0 | 0.0 | 0.00 | 0.00 | 0.00 | 69 | 1019.4 |
| 20260507235423 | 73 | 120 | 0.0 | 0.0 | 0.00 | 0.00 | 0.00 | 69 | 1019.4 |
| 20260507235018 | 73 | 120 | 0.0 | 0.0 | 0.00 | 0.00 | 0.00 | 69 | 1019.4 |
| 20260507234919 | 73 | 120 | 0.0 | 0.0 | 0.00 | 0.00 | 0.00 | 69 | 1019.4 |
| 20260507234518 | 73 | 120 | 0.0 | 0.0 | 0.00 | 0.00 | 0.00 | 69 | 1019.5 |
| 20260507234419 | 73 | 120 | 0.0 | 0.0 | 0.00 | 0.00 | 0.00 | 69 | 1019.5 |
| 20260507234020 | 74 | 120 | 0.0 | 0.0 | 0.00 | 0.00 | 0.00 | 69 | 1019.4 |
| 20260507233921 | 73 | 120 | 0.0 | 0.0 | 0.00 | 0.00 | 0.00 | 69 | 1019.4 |
| 20260507233521 | 74 | 120 | 0.0 | 0.0 | 0.00 | 0.00 | 0.00 | 69 | 1019.5 |
| 20260507233421 | 74 | 120 | 0.0 | 0.0 | 0.00 | 0.00 | 0.00 | 69 | 1019.5 |
| 20260507233023 | 74 | 120 | 0.0 | 0.0 | 0.00 | 0.00 | 0.00 | 69 | 1019.6 |
| 20260507232922 | 74 | 120 | 0.0 | 0.0 | 0.00 | 0.00 | 0.00 | 69 | 1019.6 |
| 20260507232520 | 74 | 120 | 0.0 | 0.0 | 0.00 | 0.00 | 0.00 | 69 | 1019.6 |
| 20260507232419 | 74 | 120 | 0.0 | 0.0 | 0.00 | 0.00 | 0.00 | 69 | 1019.6 |
| 20260507232017 | 74 | 120 | 0.0 | 0.0 | 0.00 | 0.00 | 0.00 | 69 | 1019.6 |
| 20260507231918 | 74 | 120 | 0.0 | 0.0 | 0.00 | 0.00 | 0.00 | 69 | 1019.6 |
| 20260507231518 | 74 | 120 | 0.0 | 0.0 | 0.00 | 0.00 | 0.00 | 69 | 1019.8 |
| 20260507231420 | 74 | 120 | 0.0 | 0.0 | 0.00 | 0.00 | 0.00 | 69 | 1019.8 |
| 20260507231018 | 74 | 120 | 0.0 | 0.0 | 0.00 | 0.00 | 0.00 | 69 | 1019.8 |
| 20260507230917 | 74 | 120 | 0.0 | 0.0 | 0.00 | 0.00 | 0.00 | 70 | 1019.7 |
| 20260507230517 | 74 | 120 | 0.0 | 0.0 | 0.00 | 0.00 | 0.00 | 70 | 1019.7 |
| 20260507230418 | 74 | 120 | 0.0 | 0.0 | 0.00 | 0.00 | 0.00 | 70 | 1019.7 |
| 20260507230025 | 74 | 120 | 0.0 | 0.0 | 0.00 | 0.00 | 0.00 | 70 | 1019.7 |
| 20260507225927 | 74 | 120 | 0.0 | 0.0 | 0.00 | 0.00 | 0.00 | 70 | 1019.7 |
| 20260507225523 | 74 | 120 | 0.0 | 0.0 | 0.00 | 0.00 | 0.00 | 70 | 1019.7 |
| 20260507225428 | 74 | 120 | 0.0 | 0.0 | 0.00 | 0.00 | 0.00 | 70 | 1019.7 |
| 20260507225024 | 74 | 120 | 0.0 | 0.0 | 0.00 | 0.00 | 0.00 | 70 | 1019.7 |
| 20260507224926 | 74 | 120 | 0.0 | 0.0 | 0.00 | 0.00 | 0.00 | 70 | 1019.8 |
| 20260507224528 | 74 | 120 | 0.0 | 0.0 | 0.00 | 0.00 | 0.00 | 70 | 1019.8 |
| 20260507224428 | 74 | 120 | 0.0 | 0.0 | 0.00 | 0.00 | 0.00 | 70 | 1019.7 |
| 20260507224026 | 74 | 120 | 0.0 | 0.0 | 0.00 | 0.00 | 0.00 | 70 | 1019.8 |
| 20260507223929 | 74 | 120 | 0.0 | 0.0 | 0.00 | 0.00 | 0.00 | 70 | 1019.8 |
| 20260507223527 | 74 | 120 | 0.0 | 0.0 | 0.00 | 0.00 | 0.00 | 71 | 1019.8 |
| 20260507223427 | 74 | 120 | 0.0 | 0.0 | 0.00 | 0.00 | 0.00 | 71 | 1019.9 |
| 20260507223027 | 74 | 120 | 0.0 | 0.0 | 0.00 | 0.00 | 0.00 | 71 | 1019.9 |
| 20260507222926 | 74 | 120 | 0.0 | 0.0 | 0.00 | 0.00 | 0.00 | 71 | 1019.9 |
| 20260507222527 | 74 | 120 | 0.0 | 0.0 | 0.00 | 0.00 | 0.00 | 71 | 1020.0 |
| 20260507222430 | 74 | 120 | 0.0 | 0.0 | 0.00 | 0.00 | 0.00 | 71 | 1020.1 |
| 20260507222032 | 74 | 120 | 0.0 | 0.0 | 0.00 | 0.00 | 0.00 | 71 | 1020.1 |
| 20260507221914 | 74 | 120 | 0.0 | 0.0 | 0.00 | 0.00 | 0.00 | 71 | 1020.1 |
| 20260507221513 | 74 | 120 | 0.0 | 0.0 | 0.00 | 0.00 | 0.00 | 71 | 1020.1 |
| 20260507221417 | 74 | 120 | 0.0 | 0.0 | 0.00 | 0.00 | 0.00 | 71 | 1020.2 |
| 20260507221016 | 74 | 120 | 0.0 | 0.0 | 0.00 | 0.00 | 0.00 | 72 | 1020.2 |
| 20260507220916 | 74 | 120 | 0.0 | 0.0 | 0.00 | 0.00 | 0.00 | 72 | 1020.1 |
| 20260507220515 | 74 | 120 | 0.0 | 0.0 | 0.00 | 0.00 | 0.00 | 72 | 1020.2 |
| 20260507220418 | 74 | 120 | 0.0 | 0.0 | 0.00 | 0.00 | 0.00 | 72 | 1020.2 |
| 20260507220029 | 74 | 120 | 0.0 | 0.0 | 0.00 | 0.00 | 0.00 | 72 | 1020.3 |
| 20260507215912 | 74 | 120 | 0.0 | 0.0 | 0.00 | 0.00 | 0.00 | 72 | 1020.3 |
| 20260507215533 | 73 | 120 | 0.0 | 0.0 | 0.00 | 0.00 | 0.00 | 72 | 1020.4 |
| 20260507215418 | 73 | 120 | 0.0 | 0.0 | 0.00 | 0.00 | 0.00 | 72 | 1020.3 |
| 20260507215015 | 73 | 120 | 0.0 | 0.0 | 0.00 | 0.00 | 0.00 | 72 | 1020.4 |
| 20260507214918 | 73 | 120 | 0.0 | 0.0 | 0.00 | 0.00 | 0.00 | 72 | 1020.4 |
| 20260507214516 | 73 | 120 | 0.0 | 0.0 | 0.00 | 0.00 | 0.00 | 72 | 1020.5 |
| 20260507214417 | 73 | 120 | 0.0 | 0.0 | 0.00 | 0.00 | 0.00 | 72 | 1020.5 |
| 20260507214017 | 73 | 120 | 0.0 | 0.0 | 0.00 | 0.00 | 0.00 | 71 | 1020.4 |
| 20260507213917 | 73 | 120 | 0.0 | 0.0 | 0.00 | 0.00 | 0.00 | 71 | 1020.4 |
| 20260507213517 | 73 | 120 | 0.0 | 0.0 | 0.00 | 0.00 | 0.00 | 71 | 1020.4 |
| 20260507213415 | 73 | 120 | 0.0 | 0.0 | 0.00 | 0.00 | 0.00 | 71 | 1020.4 |
| 20260507213013 | 73 | 120 | 0.0 | 0.0 | 0.00 | 0.00 | 0.00 | 71 | 1020.4 |
| 20260507212914 | 73 | 120 | 0.0 | 0.0 | 0.00 | 0.00 | 0.00 | 71 | 1020.3 |
| 20260507212514 | 73 | 120 | 0.0 | 0.0 | 0.00 | 0.00 | 0.00 | 71 | 1020.3 |
| 20260507212416 | 73 | 120 | 0.0 | 0.0 | 0.00 | 0.00 | 0.00 | 71 | 1020.3 |
| 20260507212016 | 72 | 120 | 0.0 | 0.0 | 0.00 | 0.00 | 0.00 | 71 | 1020.4 |
| 20260507211917 | 72 | 120 | 0.0 | 0.0 | 0.00 | 0.00 | 0.00 | 71 | 1020.4 |
| 20260507211518 | 72 | 120 | 0.0 | 0.0 | 0.00 | 0.00 | 0.00 | 71 | 1020.5 |
| 20260507211420 | 72 | 120 | 0.0 | 0.0 | 0.00 | 0.00 | 0.00 | 71 | 1020.5 |
| 20260507211020 | 72 | 120 | 0.0 | 0.0 | 0.00 | 0.00 | 0.00 | 71 | 1020.4 |
| 20260507210918 | 72 | 120 | 0.0 | 0.0 | 0.00 | 0.00 | 0.00 | 71 | 1020.4 |
| 20260507210516 | 72 | 120 | 0.0 | 0.0 | 0.00 | 0.00 | 0.00 | 71 | 1020.4 |
| 20260507210417 | 72 | 120 | 0.0 | 0.0 | 0.00 | 0.00 | 0.00 | 71 | 1020.5 |
| 20260507210030 | 72 | 120 | 0.0 | 0.0 | 0.00 | 0.00 | 0.00 | 71 | 1020.5 |
| 20260507205931 | 72 | 120 | 0.0 | 0.0 | 0.00 | 0.00 | 0.00 | 71 | 1020.3 |
| 20260507205527 | 72 | 120 | 0.0 | 0.0 | 0.00 | 0.00 | 0.00 | 71 | 1020.3 |
| 20260507205413 | 72 | 120 | 0.0 | 0.0 | 0.00 | 0.00 | 0.00 | 71 | 1020.3 |
| 20260507205031 | 72 | 120 | 0.0 | 0.0 | 0.00 | 0.00 | 0.00 | 71 | 1020.3 |
| 20260507204935 | 72 | 120 | 0.0 | 0.0 | 0.00 | 0.00 | 0.00 | 71 | 1020.3 |
| 20260507204528 | 72 | 120 | 0.0 | 0.0 | 0.00 | 0.00 | 0.00 | 71 | 1020.2 |
| 20260507204429 | 72 | 120 | 0.0 | 0.0 | 0.00 | 0.00 | 0.00 | 71 | 1020.2 |
| 20260507204028 | 72 | 120 | 0.0 | 0.0 | 0.00 | 0.00 | 0.00 | 71 | 1020.3 |
| 20260507203930 | 72 | 120 | 0.0 | 0.0 | 0.00 | 0.00 | 0.00 | 71 | 1020.2 |
| 20260507203528 | 71 | 120 | 0.0 | 0.0 | 0.00 | 0.00 | 0.00 | 71 | 1020.2 |
| 20260507203428 | 71 | 120 | 0.0 | 0.0 | 0.00 | 0.00 | 0.00 | 71 | 1020.3 |